www.pogodaiklimat.ru

Погода и климат >> Архив погоды >> Индонезия >> Биак


ПОГОДА в Биаке

  • Прогноз погоды в Биаке
  • Монитор погоды в Биаке

АРХИВ ПОГОДЫ в Биаке

Время (UTC), дата Ветер
(напр.,м/с)
 
Видим.   Явления Облачность Т
(С)
Тd
(С)
f
(%)
Тe
(С)
Тes
(С)
Комфортность P
(гПа)
Po
(гПа)
Тmin
(С)
Tmax
(С)
R
(мм)
R24
(мм)
S
(см)
00 18.06 З 6 10 км в посл. час дождь {ливн. осадки} 10/4 540 м
[Cu Sc Ac und Cs]
+28.6 +25.6 84 +42 +44 опасность
перегрева
1010.2 1008.8 +23.4 10
03 18.06 З 4 10 км 10/4 540 м
[Cu Sc Ac und Cs]
+29.2 +24.9 78 +42 +46 опасность
перегрева
1008.8 1007.5
06 18.06 З 6 10 км 10/4 540 м
[Cu Sc Ac und Cs]
+29.6 +24.7 75 +42 +43 опасность
перегрева
1007.0 1005.7
09 18.06 З 3 10 км 10/4 540 м
[Cu Sc Ac und Cs]
+28.4 +24.6 80 +40 +40 очень
душно
1008.1 1006.8
12 18.06 СЗ 2 10 км 9/4 540 м
[Cu Sc Ac und Cs]
+27.2 +24.6 86 +39 +39 очень
душно
1009.5 1008.2 +30.4
15 18.06 З 2 10 км 9/4 540 м
[Cu Sc Ac und Cs]
+26.4 +24.5 89 +37 +37 очень
душно
1009.3 1008.0
18 18.06 З 3 9000 м слаб. дождь 10/4 540 м
[Cu Sc Ac As Cc]
+26.6 +25.0 91 +38 +38 очень
душно
1007.9 1006.6 0.0
21 18.06 СЗ 2 10 км {дождь} 10/4 540 м
[Cu Sc Ac trans Cs]
+25.7 +25.0 96 +37 +37 очень
душно
1008.1 1006.8 0.0
00 19.06 З 4 10 км {дождь} 9/4 540 м
[Cu med, cong Ac trans Cs]
+29.1 +25.2 80 +42 +45 опасность
перегрева
1009.4 1008.1 +25.0 0.0
03 19.06 З 3 10 км 6/3 540 м
[Cu med, cong Ac trans Ci]
+29.2 +25.0 78 +42 +50 опасность
перегрева
1008.3 1007.0
06 19.06 З 4 10 км 6/3 540 м
[Cu med, cong Ac trans Ci]
+30.0 +25.4 76 +44 +47 опасность
перегрева
1006.9 1005.6
09 19.06 З 3 10 км 8/3 540 м
[Cu med, cong Ac trans Cc]
+28.5 +24.7 80 +41 +41 опасность
перегрева
1007.5 1006.2
12 19.06 З 3 10 км 5/3 540 м
[Cu med, cong Ac trans Cs]
+28.0 +25.4 86 +41 +41 опасность
перегрева
1009.1 1007.8 +30.6
15 19.06 СЗ 1 10 км 5/4 540 м
[Cu med, cong Ac trans Cs]
+26.8 +25.7 94 +40 +40 очень
душно
1008.3 1007.0
18 19.06 ЮЗ 5 10 км 5/4 540 м
[Cu med, cong Ac trans Cs]
+28.6 +25.1 81 +41 +41 опасность
перегрева
1007.0 1005.7
21 19.06 СЗ 2 10 км 5/4 540 м
[Cu med, cong Ac trans Cs]
+26.5 +24.9 91 +38 +38 очень
душно
1007.7 1006.4
00 20.06 ЮЗ 2 10 км 8/5 540 м
[Cu med, cong Ac trans Ci sp]
+29.2 +25.3 80 +43 +46 опасность
перегрева
1009.3 1008.0 +26.3
03 20.06 З 5 10 км 9/4 540 м
[Cu med, cong Ac trans Ci sp]
+29.6 +25.3 78 +43 +47 опасность
перегрева
1008.6 1007.3
06 20.06 З 4 10 км 9/4 540 м
[Cu med, cong Ac trans Ci sp]
+29.3 +25.0 78 +42 +45 опасность
перегрева
1007.4 1006.1
09 20.06 З 3 10 км 9/3 540 м
[Cu med, cong Ac trans Cs]
+28.2 +24.2 79 +39 +39 очень
душно
1008.7 1007.4
12 20.06 С 1 10 км 10/1 540 м
[Cu Sc Ac trans Cs]
+26.4 +24.2 88 +37 +37 очень
душно
1010.7 1009.4 +30.1
15 20.06 штиль 0 10 км 10/1 540 м
[Cu Sc Ac trans Cs]
+25.8 +24.6 93 +36 +36 очень
душно
1010.2 1008.9
18 20.06 СЗ 1 10 км 10/1 540 м
[Cu Sc Ac trans Cs]
+25.4 +24.7 96 +36 +36 очень
душно
1008.8 1007.5
21 20.06 С 1 10 км 10/1 540 м
[Cu med, cong Ac trans Cs]
+24.9 +24.5 98 +35 +35 очень
душно
1009.0 1007.7
00 21.06 ЮЗ 4 10 км 9/4 540 м
[Cu med, cong Ac trans Cs]
+28.7 +25.8 84 +43 +45 опасность
перегрева
1009.4 1008.1 +24.7
03 21.06 З 4 10 км 9/4 540 м
[Cu med, cong Ac trans Cs]
+30.3 +25.6 76 +45 +49 опасность
перегрева
1007.3 1006.0
06 21.06 ЮЗ 3 10 км 8/3 540 м
[Cu Sc Ac trans Cs]
+30.0 +25.7 78 +45 +48 опасность
перегрева
1006.0 1004.7
09 21.06 С 2 6000 м в посл. час дождь {ливн. осадки} 9/4 540 м
[Cu Sc Ac trans Cs]
+27.8 +8.0 29 +28 +28 жарко 1008.0 1006.7 0.0
12 21.06 С 4 9000 м слаб. дождь 10/8 540 м
[Cu med, cong As op]
+26.3 +24.4 89 +37 +37 очень
душно
1010.2 1008.9 +30.5 0.1
15 21.06 В 1 10 км {дождь} 10/6 540 м
[Cu med, cong As op]
+26.5 +24.9 91 +38 +38 очень
душно
1009.9 1008.6 0.0
18 21.06 СВ 2 8000 м слаб. дождь 10/8 540 м
[Cu med, cong As op]
+24.8 +24.0 95 +34 +34 очень
душно
1008.9 1007.6 0.0
21 21.06 СЗ 1 10 км {дождь} 10/4 540 м
[Cu Sc Ac As]
+24.9 +24.1 95 +34 +34 очень
душно
1008.6 1007.3 0.0
00 22.06 ЮВ 2 10 км {дождь} 9/3 540 м
[Cu med, cong Ac trans Cs]
+28.6 +25.1 81 +41 +45 опасность
перегрева
1009.9 1008.6 +24.0 1
03 22.06 ЮВ 4 10 км 9/4 540 м
[Cu med, cong Ac trans Cs]
+29.7 +25.5 78 +44 +48 опасность
перегрева
1008.2 1006.9
06 22.06 ЮВ 3 10 км 9/4 540 м
[Cu med, cong Ac trans Cs]
+29.9 +25.5 77 +44 +46 опасность
перегрева
1006.2 1004.9
09 22.06 С 1 10 км 6/4 540 м
[Cu med, cong Ac trans Cs]
+28.5 +25.0 81 +41 +41 опасность
перегрева
1007.3 1006.0
12 22.06 С 1 10 км 6/3 540 м
[Cu med, cong Ac trans Cs]
+26.2 +25.0 93 +37 +37 очень
душно
1009.5 1008.2 +30.6
15 22.06 штиль 0 10 км 6/3 540 м
[Cu med, cong Ac trans Cs]
+25.6 +24.6 94 +36 +36 очень
душно
1009.0 1007.7
18 22.06 С 2 10 км 6/3 540 м
[Cu med, cong Ac trans Cs]
+24.7 +24.0 96 +34 +34 очень
душно
1008.1 1006.8
21 22.06 штиль 0 10 км 6/3 540 м
[Cu med, cong Ac trans Cs]
+24.5 +24.2 98 +34 +34 очень
душно
1008.9 1007.6
00 23.06 ЮЗ 2 10 км 5/3 540 м
[Cu med, cong Ac trans Ci]
+28.9 +25.3 81 +42 +48 опасность
перегрева
1009.5 1008.2 +24.3
03 23.06 ЮЗ 2 10 км 5/3 540 м
[Cu med, cong Ac trans Ci]
+30.4 +25.2 74 +44 +56 опасность
перегрева
1008.9 1007.6
06 23.06 З 2 9000 м слаб. дождь 6/4 540 м
[Cu Sc Ac inh Cs]
+29.2 +25.9 82 +44 +48 опасность
перегрева
1007.4 1006.1 0.0
09 23.06 С 2 10 км {дождь} 6/4 540 м
[Cu Sc Ac trans Cs]
+28.0 +25.7 87 +41 +41 опасность
перегрева
1008.7 1007.4
12 23.06 СЗ 1 10 км {дождь} 8/4 540 м
[Cu med, cong Ac trans Cs]
+26.1 +24.3 90 +36 +36 очень
душно
1010.7 1009.4 +31.6
15 23.06 СЗ 1 10 км 8/4 540 м
[Cu med, cong Ac trans Cs]
+25.3 +24.5 95 +35 +35 очень
душно
1010.5 1009.2
18 23.06 СВ 1 10 км 8/4 540 м
[Cu med, cong Ac trans Cs]
+24.8 +24.3 97 +34 +34 очень
душно
1009.7 1008.4
21 23.06 СЗ 1 10 км 8/4 540 м
[Cu med, cong Ac trans Cs]
+24.8 +24.4 98 +35 +35 очень
душно
1010.5 1009.2
00 24.06 Ю 2 10 км 6/3 540 м
[Cu Sc Ac lent Ci fib]
+29.7 +26.4 82 +45 +50 опасность
перегрева
1011.9 1010.6 +24.4 0.0
03 24.06 З 1 10 км 6/4 540 м
[Cu Sc Ac trans Cs]
+29.9 +26.3 81 +46 +56 опасность
перегрева
1010.5 1009.2
06 24.06 З 2 9000 м осадки на расстоянии 6/4 540 м
[Cu Sc Ac trans Cc]
+30.2 +25.7 77 +45 +49 опасность
перегрева
1009.1 1007.8
09 24.06 СЗ 1 10 км {дождь} 10/1 540 м
[Cu med, cong Ac trans Cs]
+27.5 +24.9 86 +39 +39 очень
душно
1010.1 1008.8 6
12 24.06 С 1 10 км {дождь} 6/1 540 м
[Cu med, cong Ac trans Cs]
+25.8 +24.8 94 +37 +37 очень
душно
1011.8 1010.5 +30.7 6
15 24.06 штиль 0 10 км 6/3 540 м
[Cu med, cong Ac trans Cs]
+25.7 +24.6 94 +36 +36 очень
душно
1011.7 1010.4
18 24.06 СЗ 2 10 км 6/3 540 м
[Cu med, cong Ac trans Cs]
+24.7 +24.4 98 +34 +34 очень
душно
1010.4 1009.1
21 24.06 СЗ 2 10 км 6/3 540 м
[Cu med, cong Ac trans Cs]
+25.3 +24.5 95 +35 +35 очень
душно
1010.7 1009.4

 

Местоположение метеостанции Биак (Индонезия): широта -1.18 долгота 136.11 высота над уровнем моря 11 м.

В архиве по умолчанию представлена погода в Биаке за последнюю неделю. Архивные данные за месяц целиком и за предыдущие месяцы, начиная с января 2011 года, Вы можете получить, выбрав интересующий диапазон дат из раскрывающегося списка и нажав кнопку "Ввод!".


*Определитесь, кто Вы:
робот инопланетянин человек

Внимание! Время в таблицах - всемирное. Для получения местного времени необходимо прибавить поправку, которая равна 9 ч.

Смотрите также архив погоды в соседних городах и на ближайших метеорологических станциях:

Погода в Серуи (Индонезия) (78 км)
Погода в Маноквари (Индонезия) (232 км)
Погода в Набире (Индонезия) (249 км)
Погода в Сарми (Индонезия) (298 км)
Погода в Энаротали (Индонезия) (306 км)
Погода в Каимана (Индонезия) (381 км)
Погода в Коконао (Индонезия) (450 км)
Погода в Вамене (Индонезия) (450 км)
Погода в Факфаке (Индонезия) (470 км)
Погода в Сентани (Индонезия) (514 км)

Пояснения к столбцам:

Ветер - указаны скорость ветра в м/с - средняя за 10 мин, порывы в срок и между сроками (в фигурных скобках) и направление, откуда дует ветер: С - северный, СВ - северо-восточный, В - восточный, ЮВ - юго-восточный, Ю - южный, ЮЗ - юго-западный, З - западный, СЗ - северо-западный.
Видимость - горизонтальная дальность видимости в метрах или километрах. При видимости от 1 до 10 км при отсутствии осадков обычно наблюдается дымка, при ухудшении видимости до 1 км и менее - туман. В сухую погоду видимость может ухудшаться дымом, пылью или мглою.
Явления - указаны атмосферные явления, наблюдавшиеся в срок или в последний час перед сроком; фигурными скобками обозначены явления, наблюдавшиеся между сроками (за 1-3 часа до срока); квадратными скобками обозначены град или гололедные отложения с указанием их диаметра в мм.
Облачность - указаны через наклонную черту общая и нижняя облачность в баллах и высота нижней границы облаков в метрах; квадратными скобками обозначены формы облаков: Ci - перистые, Cs - перисто-слоистые, Cc - перисто-кучевые, Ac - высококучевые, As - высокослоистые, Sc - слоисто-кучевые, Ns - слоисто-дождевые, Cu - кучевые, Cb - кучево-дождевые. Подробнее классификацию облаков см. в Атласе облаков (PDF).
T - Температура воздуха - температура, измеренная на высоте 2 м над землей.
Td - Температура точки росы - температура, при понижении до которой содержащийся в воздухе водяной пар достигнет насыщения.
f - Относительная влажность воздуха - влажноcть воздуха, измеренная на высоте 2 м над землей.
Te - Эффективная температура - температура, которую ощущает одетый по сезону человек в тени. Характеристика душности погоды. При расчете учитывается влияние влажности воздуха и скорости ветра на теплоощущения человека.
Tes - Эффективная температура на солнце - температура, которую ощущает человек, с поправкой на солнечный нагрев. Характеристика знойности погоды. Зависит от высоты солнца над горизонтом, облачности и скорости ветра. Ночью, в пасмурную погоду, а также при ветре 12 м/с и более поправка равна нулю.
P - Атмосферное давление - приведенное к уровню моря атмосферное давление.
Po - Атмосферное давление - измеренное на уровне метеостанции атмосферное давление.
Tmin - Минимальная температура - минимум температуры воздуха на высоте 2 м над землей.
Tmax - Максимальная температура - максимум температуры воздуха на высоте 2 м над землей.
R - Количество осадков - Количество выпавших осадков за период времени, мм. При наведении курсора мыши на число - период времени, за который выпало указанное количество осадков.
R24 - Количество осадков - Количество выпавших осадков за 24 часа, мм.
S - Снежный покров - Высота снежного покрова, см. При наведении курсора мыши на число - состояние снежного покрова и степень покрытия местности в баллах.